NOAA 16 DEB

基本信息
目录编号:
42387
目录名称:
NOAA 16 DEB
国际标识:
2000-055SF
轨道中心:
EARTH
物体状态:
在轨
发射日期:
2000-09-21 UTC
轨道信息
数据来源: 国际轨道数据
星历时间: 2026-07-11T15:42:28+0800
半长轴: 7121.495km
偏心率: 0.0014183
轨道倾角: 98.839°
近地点辐角: 161.738°
升交点赤经: 323.982°
平近点角: 198.432°
近地点: 733.257km
远地点: 753.459km
周期: 99.682分钟
每日圈数: 14.445947
详细信息
发射场:
AFWTR
轨道高度:
LEO
数据来源:
AOE Integration Group
参考系:
TEME
时间系统:
UTC
历元类型:
SGP4
2D轨道图
3D轨道图
轨道高度分析图
轨道倾角分析图
轨道综合分析图
查看轨道综合分析图